| time (UTC) | temp F | wind direction | speed MPH | gust MPH | rain 1hr in | rain 24hr in | rain mn in | humidity % | barometer mb |
| 20260505075504 | 71 | 80 | 2.0 | 2.0 | 0.00 | 0.00 | 0.00 | 86 | 1008.7 |
| 20260505075000 | 71 | 96 | 2.0 | 5.0 | 0.00 | 0.00 | 0.00 | 86 | 1009.0 |
| 20260505074458 | 71 | 74 | 3.0 | 3.0 | 0.00 | 0.00 | 0.00 | 86 | 1009.0 |
| 20260505073955 | 71 | 84 | 3.0 | 4.0 | 0.00 | 0.00 | 0.00 | 86 | 1009.1 |
| 20260505073452 | 71 | 96 | 1.0 | 5.0 | 0.00 | 0.00 | 0.00 | 86 | 1009.1 |
| 20260505072950 | 71 | 89 | 0.0 | 4.0 | 0.00 | 0.00 | 0.00 | 85 | 1009.2 |
| 20260505072446 | 71 | 60 | 3.0 | 3.0 | 0.00 | 0.00 | 0.00 | 86 | 1009.2 |
| 20260505071942 | 71 | 44 | 2.0 | 3.0 | 0.00 | 0.00 | 0.00 | 85 | 1009.1 |
| 20260505071438 | 71 | 108 | 0.0 | 4.0 | 0.00 | 0.00 | 0.00 | 85 | 1009.3 |
| 20260505070936 | 71 | 149 | 0.0 | 3.0 | 0.00 | 0.00 | 0.00 | 85 | 1009.4 |
| 20260505070433 | 71 | 114 | 3.0 | 4.0 | 0.00 | 0.00 | 0.00 | 85 | 1009.3 |
| 20260505065928 | 71 | 136 | 2.0 | 3.0 | 0.00 | 0.00 | 0.00 | 85 | 1009.4 |
| 20260505065425 | 71 | 124 | 2.0 | 4.0 | 0.00 | 0.00 | 0.00 | 85 | 1009.5 |
| 20260505064922 | 71 | 67 | 2.0 | 2.0 | 0.00 | 0.00 | 0.00 | 85 | 1009.6 |
| 20260505064419 | 71 | 73 | 1.0 | 3.0 | 0.00 | 0.00 | 0.00 | 85 | 1009.5 |
| 20260505063917 | 71 | 52 | 2.0 | 4.0 | 0.00 | 0.00 | 0.00 | 85 | 1009.6 |
| 20260505063413 | 71 | 77 | 2.0 | 5.0 | 0.00 | 0.00 | 0.00 | 85 | 1009.7 |
| 20260505062910 | 71 | 80 | 3.0 | 3.0 | 0.00 | 0.00 | 0.00 | 85 | 1009.8 |
| 20260505062407 | 71 | 100 | 3.0 | 4.0 | 0.00 | 0.00 | 0.00 | 85 | 1009.8 |
| 20260505061904 | 71 | 54 | 5.0 | 5.0 | 0.00 | 0.00 | 0.00 | 85 | 1009.9 |
| 20260505061402 | 71 | 71 | 1.0 | 4.0 | 0.00 | 0.00 | 0.00 | 85 | 1010.0 |
| 20260505060859 | 71 | 114 | 3.0 | 5.0 | 0.00 | 0.00 | 0.00 | 84 | 1010.0 |
| 20260505060356 | 71 | 43 | 6.0 | 6.0 | 0.00 | 0.00 | 0.00 | 84 | 1009.9 |
| 20260505055852 | 72 | 99 | 3.0 | 4.0 | 0.00 | 0.00 | 0.00 | 84 | 1009.9 |
| 20260505055348 | 72 | 120 | 1.0 | 4.0 | 0.00 | 0.00 | 0.00 | 84 | 1010.0 |
| 20260505054845 | 72 | 97 | 1.0 | 3.0 | 0.00 | 0.00 | 0.00 | 84 | 1009.9 |
| 20260505054343 | 72 | 40 | 3.0 | 5.0 | 0.00 | 0.00 | 0.00 | 84 | 1010.0 |
| 20260505053841 | 72 | 61 | 3.0 | 3.0 | 0.00 | 0.00 | 0.00 | 83 | 1010.0 |
| 20260505053337 | 72 | 61 | 2.0 | 6.0 | 0.00 | 0.00 | 0.00 | 83 | 1009.8 |
| 20260505052834 | 72 | 84 | 1.0 | 3.0 | 0.00 | 0.00 | 0.00 | 83 | 1009.8 |
| 20260505052331 | 72 | 70 | 2.0 | 2.0 | 0.00 | 0.00 | 0.00 | 83 | 1009.9 |
| 20260505051828 | 72 | 72 | 2.0 | 4.0 | 0.00 | 0.00 | 0.00 | 83 | 1009.9 |
| 20260505051325 | 72 | 144 | 2.0 | 4.0 | 0.00 | 0.00 | 0.00 | 83 | 1009.8 |
| 20260505050823 | 72 | 136 | 2.0 | 4.0 | 0.00 | 0.00 | 0.00 | 83 | 1009.7 |
| 20260505050322 | 72 | 13 | 1.0 | 4.0 | 0.00 | 0.00 | 0.00 | 83 | 1009.8 |
| 20260505041752 | 73 | 103 | 0.0 | 3.0 | 0.00 | 0.00 | 0.00 | 81 | 1009.6 |
| 20260505041249 | 73 | 60 | 5.0 | 5.0 | 0.00 | 0.00 | 0.00 | 81 | 1009.8 |
| 20260505040746 | 73 | 77 | 2.0 | 5.0 | 0.00 | 0.00 | 0.00 | 81 | 1009.7 |
| 20260505040244 | 73 | 71 | 2.0 | 2.0 | 0.00 | 0.00 | 0.00 | 81 | 1009.9 |
| 20260505035740 | 73 | 44 | 2.0 | 4.0 | 0.00 | 0.00 | 0.00 | 81 | 1009.9 |
| 20260505035236 | 74 | 69 | 2.0 | 9.0 | 0.00 | 0.00 | 0.00 | 80 | 1009.8 |
| 20260505034733 | 74 | 102 | 3.0 | 4.0 | 0.00 | 0.00 | 0.00 | 80 | 1009.8 |
| 20260505034230 | 74 | 60 | 2.0 | 4.0 | 0.00 | 0.00 | 0.00 | 79 | 1009.8 |
| 20260505033727 | 74 | 68 | 2.0 | 4.0 | 0.00 | 0.00 | 0.00 | 79 | 1009.8 |
| 20260505033225 | 74 | 64 | 2.0 | 4.0 | 0.00 | 0.00 | 0.00 | 79 | 1009.7 |
| 20260505032722 | 74 | 8 | 5.0 | 6.0 | 0.00 | 0.00 | 0.00 | 79 | 1009.9 |
| 20260505032218 | 74 | 38 | 2.0 | 4.0 | 0.00 | 0.00 | 0.00 | 78 | 1009.7 |
| 20260505031716 | 75 | 82 | 2.0 | 4.0 | 0.00 | 0.00 | 0.00 | 78 | 1009.8 |
| 20260505031212 | 75 | 47 | 2.0 | 4.0 | 0.00 | 0.00 | 0.00 | 78 | 1009.7 |
| 20260505030709 | 75 | 73 | 2.0 | 3.0 | 0.00 | 0.00 | 0.00 | 78 | 1009.8 |
| 20260505030205 | 75 | 50 | 2.0 | 6.0 | 0.00 | 0.00 | 0.00 | 77 | 1009.9 |
| 20260505025701 | 75 | 83 | 0.0 | 4.0 | 0.00 | 0.00 | 0.00 | 77 | 1009.7 |
| 20260505025159 | 75 | 92 | 2.0 | 2.0 | 0.00 | 0.00 | 0.00 | 77 | 1009.9 |
| 20260505024657 | 75 | 81 | 1.0 | 2.0 | 0.00 | 0.00 | 0.00 | 76 | 1009.7 |
| 20260505024154 | 75 | 129 | 0.0 | 3.0 | 0.00 | 0.00 | 0.00 | 76 | 1009.7 |
| 20260505023651 | 75 | 66 | 2.0 | 2.0 | 0.00 | 0.00 | 0.00 | 76 | 1009.9 |
| 20260505023149 | 76 | 66 | 2.0 | 2.0 | 0.00 | 0.00 | 0.00 | 76 | 1009.7 |
| 20260505022646 | 76 | 160 | 1.0 | 2.0 | 0.00 | 0.00 | 0.00 | 75 | 1009.6 |
| 20260505022143 | 76 | 119 | 2.0 | 2.0 | 0.00 | 0.00 | 0.00 | 75 | 1009.6 |
| 20260505021639 | 76 | 105 | 0.0 | 6.0 | 0.00 | 0.00 | 0.00 | 74 | 1009.6 |
| 20260505021136 | 76 | 82 | 2.0 | 4.0 | 0.00 | 0.00 | 0.00 | 74 | 1009.6 |
| 20260505020632 | 76 | 74 | 0.0 | 2.0 | 0.00 | 0.00 | 0.00 | 74 | 1009.5 |
| 20260505020128 | 76 | 106 | 1.0 | 2.0 | 0.00 | 0.00 | 0.00 | 73 | 1009.6 |
| 20260505015625 | 76 | 117 | 2.0 | 2.0 | 0.00 | 0.00 | 0.00 | 73 | 1009.6 |
| 20260505015122 | 77 | 113 | 0.0 | 4.0 | 0.00 | 0.00 | 0.00 | 72 | 1009.5 |
| 20260505014618 | 77 | 159 | 2.0 | 3.0 | 0.00 | 0.00 | 0.00 | 71 | 1009.4 |
| 20260505014116 | 77 | 97 | 1.0 | 3.0 | 0.00 | 0.00 | 0.00 | 71 | 1009.5 |
| 20260505013613 | 77 | 93 | 0.0 | 2.0 | 0.00 | 0.00 | 0.00 | 70 | 1009.4 |
| 20260505013110 | 77 | 67 | 1.0 | 2.0 | 0.00 | 0.00 | 0.00 | 71 | 1009.4 |
| 20260505012608 | 77 | 123 | 1.0 | 6.0 | 0.00 | 0.00 | 0.00 | 69 | 1009.4 |
| 20260505012105 | 77 | 89 | 0.0 | 2.0 | 0.00 | 0.00 | 0.00 | 68 | 1009.5 |
| 20260505011600 | 77 | 128 | 2.0 | 3.0 | 0.00 | 0.00 | 0.00 | 67 | 1009.5 |
| 20260505011058 | 78 | 87 | 2.0 | 2.0 | 0.00 | 0.00 | 0.00 | 66 | 1009.2 |
| 20260505010553 | 78 | 121 | 1.0 | 2.0 | 0.00 | 0.00 | 0.00 | 66 | 1009.2 |
| 20260505010050 | 78 | 95 | 2.0 | 3.0 | 0.00 | 0.00 | 0.00 | 65 | 1009.2 |
| 20260505005546 | 78 | 101 | 0.0 | 2.0 | 0.00 | 0.00 | 0.00 | 64 | 1009.1 |
| 20260505005044 | 79 | 142 | 1.0 | 2.0 | 0.00 | 0.00 | 0.00 | 64 | 1009.3 |
| 20260505004540 | 79 | 128 | 0.0 | 2.0 | 0.00 | 0.00 | 0.00 | 64 | 1009.3 |
| 20260505004037 | 79 | 85 | 1.0 | 3.0 | 0.00 | 0.00 | 0.00 | 63 | 1009.1 |
| 20260505003535 | 79 | 153 | 2.0 | 3.0 | 0.00 | 0.00 | 0.00 | 62 | 1009.3 |
| 20260505003032 | 79 | 187 | 0.0 | 5.0 | 0.00 | 0.00 | 0.00 | 62 | 1009.2 |
| 20260505002532 | 80 | 102 | 4.0 | 5.0 | 0.00 | 0.00 | 0.00 | 62 | 1009.2 |
| 20260505002031 | 80 | 98 | 1.0 | 4.0 | 0.00 | 0.00 | 0.00 | 61 | 1009.0 |
| 20260505001528 | 80 | 245 | 2.0 | 4.0 | 0.00 | 0.00 | 0.00 | 61 | 1008.9 |
| 20260505001025 | 80 | 99 | 1.0 | 3.0 | 0.00 | 0.00 | 0.00 | 61 | 1008.9 |
| 20260505000523 | 80 | 167 | 0.0 | 4.0 | 0.00 | 0.00 | 0.00 | 61 | 1009.3 |
| 20260505000020 | 80 | 147 | 2.0 | 4.0 | 0.00 | 0.00 | 0.00 | 60 | 1009.3 |
| 20260504235517 | 81 | 78 | 1.0 | 4.0 | 0.00 | 0.00 | 0.00 | 60 | 1009.2 |
| 20260504235013 | 81 | 43 | 3.0 | 3.0 | 0.00 | 0.00 | 0.00 | 60 | 1009.5 |
| 20260504234511 | 81 | 36 | 1.0 | 3.0 | 0.00 | 0.00 | 0.00 | 59 | 1009.3 |
| 20260504234007 | 81 | 105 | 2.0 | 4.0 | 0.00 | 0.00 | 0.00 | 61 | 1009.5 |
| 20260504233502 | 81 | 121 | 1.0 | 2.0 | 0.00 | 0.00 | 0.00 | 59 | 1009.6 |
| 20260504233000 | 81 | 74 | 2.0 | 5.0 | 0.00 | 0.00 | 0.00 | 59 | 1009.7 |
| 20260504232457 | 82 | 73 | 0.0 | 4.0 | 0.00 | 0.00 | 0.00 | 60 | 1009.6 |
| 20260504231954 | 82 | 36 | 2.0 | 5.0 | 0.00 | 0.00 | 0.00 | 59 | 1009.6 |
| 20260504231450 | 82 | 96 | 3.0 | 4.0 | 0.00 | 0.00 | 0.00 | 59 | 1009.6 |
| 20260504230947 | 82 | 76 | 3.0 | 3.0 | 0.00 | 0.00 | 0.00 | 59 | 1009.7 |
| 20260504230444 | 82 | 162 | 2.0 | 5.0 | 0.00 | 0.00 | 0.00 | 57 | 1009.7 |
| 20260504225943 | 83 | 127 | 1.0 | 3.0 | 0.00 | 0.00 | 0.00 | 57 | 1009.8 |
| 20260504225439 | 82 | 86 | 2.0 | 4.0 | 0.00 | 0.00 | 0.00 | 58 | 1009.9 |
| 20260504224936 | 82 | 100 | 2.0 | 4.0 | 0.00 | 0.00 | 0.00 | 57 | 1010.0 |
| 20260504224432 | 82 | 98 | 1.0 | 3.0 | 0.00 | 0.00 | 0.00 | 57 | 1010.0 |
| 20260504223930 | 83 | 73 | 2.0 | 3.0 | 0.00 | 0.00 | 0.00 | 57 | 1010.0 |
| 20260504223425 | 83 | 174 | 2.0 | 5.0 | 0.00 | 0.00 | 0.00 | 56 | 1009.9 |
| 20260504222921 | 84 | 70 | 4.0 | 5.0 | 0.00 | 0.00 | 0.00 | 56 | 1010.1 |
| 20260504222419 | 83 | 121 | 1.0 | 3.0 | 0.00 | 0.00 | 0.00 | 57 | 1010.1 |
| 20260504221917 | 83 | 106 | 1.0 | 3.0 | 0.00 | 0.00 | 0.00 | 56 | 1010.2 |
| 20260504221413 | 83 | 113 | 0.0 | 3.0 | 0.00 | 0.00 | 0.00 | 57 | 1010.2 |
| 20260504220911 | 84 | 88 | 4.0 | 4.0 | 0.00 | 0.00 | 0.00 | 56 | 1010.4 |
| 20260504220407 | 83 | 52 | 2.0 | 3.0 | 0.00 | 0.00 | 0.00 | 56 | 1010.4 |
| 20260504215904 | 84 | 44 | 3.0 | 5.0 | 0.00 | 0.00 | 0.00 | 55 | 1010.2 |
| 20260504215401 | 84 | 27 | 0.0 | 6.0 | 0.00 | 0.00 | 0.00 | 56 | 1010.2 |
| 20260504214857 | 84 | 163 | 2.0 | 3.0 | 0.00 | 0.00 | 0.00 | 55 | 1010.1 |
| 20260504214354 | 84 | 48 | 4.0 | 5.0 | 0.00 | 0.00 | 0.00 | 55 | 1010.1 |
| 20260504213851 | 84 | 147 | 2.0 | 4.0 | 0.00 | 0.00 | 0.00 | 57 | 1010.4 |
| 20260504213346 | 84 | 150 | 2.0 | 4.0 | 0.00 | 0.00 | 0.00 | 56 | 1010.5 |
| 20260504212844 | 85 | 42 | 4.0 | 4.0 | 0.00 | 0.00 | 0.00 | 55 | 1010.7 |
| 20260504212340 | 84 | 82 | 1.0 | 7.0 | 0.00 | 0.00 | 0.00 | 55 | 1010.8 |
| 20260504211838 | 85 | 51 | 2.0 | 4.0 | 0.00 | 0.00 | 0.00 | 55 | 1010.9 |
| 20260504211334 | 85 | 111 | 3.0 | 4.0 | 0.00 | 0.00 | 0.00 | 54 | 1010.7 |
| 20260504210831 | 84 | 112 | 1.0 | 5.0 | 0.00 | 0.00 | 0.00 | 56 | 1010.9 |
| 20260504210328 | 85 | 39 | 3.0 | 5.0 | 0.00 | 0.00 | 0.00 | 55 | 1011.2 |
| 20260504205825 | 85 | 76 | 1.0 | 2.0 | 0.00 | 0.00 | 0.00 | 54 | 1011.1 |
| 20260504205323 | 85 | 142 | 1.0 | 3.0 | 0.00 | 0.00 | 0.00 | 55 | 1011.3 |
| 20260504204821 | 85 | 60 | 2.0 | 4.0 | 0.00 | 0.00 | 0.00 | 55 | 1011.3 |
| 20260504204319 | 85 | 132 | 1.0 | 4.0 | 0.00 | 0.00 | 0.00 | 55 | 1011.3 |
| 20260504203818 | 85 | 30 | 1.0 | 4.0 | 0.00 | 0.00 | 0.00 | 53 | 1011.3 |
| 20260504203315 | 85 | 149 | 2.0 | 4.0 | 0.00 | 0.00 | 0.00 | 53 | 1011.7 |
| 20260504202810 | 84 | 34 | 4.0 | 4.0 | 0.00 | 0.00 | 0.00 | 55 | 1011.6 |
| 20260504202308 | 86 | 167 | 2.0 | 7.0 | 0.00 | 0.00 | 0.00 | 53 | 1011.9 |
| 20260504201804 | 85 | 35 | 4.0 | 4.0 | 0.00 | 0.00 | 0.00 | 53 | 1011.9 |
| 20260504201302 | 85 | 54 | 2.0 | 4.0 | 0.00 | 0.00 | 0.00 | 54 | 1012.0 |
| 20260504200759 | 85 | 84 | 3.0 | 4.0 | 0.00 | 0.00 | 0.00 | 53 | 1012.1 |
| 20260504200255 | 85 | 166 | 2.0 | 5.0 | 0.00 | 0.00 | 0.00 | 53 | 1012.3 |
| 20260504195752 | 86 | 126 | 1.0 | 3.0 | 0.00 | 0.00 | 0.00 | 53 | 1012.1 |
| 20260504195248 | 85 | 97 | 0.0 | 3.0 | 0.00 | 0.00 | 0.00 | 54 | 1012.3 |
| 20260504194745 | 85 | 34 | 2.0 | 5.0 | 0.00 | 0.00 | 0.00 | 53 | 1012.4 |
| 20260504194241 | 85 | 164 | 2.0 | 3.0 | 0.00 | 0.00 | 0.00 | 53 | 1012.5 |
| 20260504193737 | 84 | 69 | 2.0 | 5.0 | 0.00 | 0.00 | 0.00 | 55 | 1012.6 |
| 20260504193235 | 86 | 100 | 2.0 | 4.0 | 0.00 | 0.00 | 0.00 | 51 | 1012.6 |
| 20260504192733 | 86 | 143 | 1.0 | 5.0 | 0.00 | 0.00 | 0.00 | 52 | 1012.6 |
| 20260504192231 | 86 | 106 | 2.0 | 3.0 | 0.00 | 0.00 | 0.00 | 52 | 1012.7 |
| 20260504191729 | 85 | 35 | 2.0 | 3.0 | 0.00 | 0.00 | 0.00 | 53 | 1012.9 |
| 20260504191226 | 84 | 66 | 2.0 | 4.0 | 0.00 | 0.00 | 0.00 | 55 | 1012.9 |
| 20260504190721 | 83 | 117 | 1.0 | 4.0 | 0.00 | 0.00 | 0.00 | 55 | 1013.0 |
| 20260504190218 | 83 | 237 | 0.0 | 4.0 | 0.00 | 0.00 | 0.00 | 55 | 1012.9 |
| 20260504185714 | 83 | 25 | 4.0 | 6.0 | 0.00 | 0.00 | 0.00 | 55 | 1013.0 |
| 20260504185211 | 83 | 174 | 0.0 | 4.0 | 0.00 | 0.00 | 0.00 | 56 | 1013.1 |
| 20260504184707 | 83 | 51 | 1.0 | 4.0 | 0.00 | 0.00 | 0.00 | 54 | 1013.0 |
| 20260504184203 | 83 | 113 | 2.0 | 4.0 | 0.00 | 0.00 | 0.00 | 55 | 1013.0 |
| 20260504183659 | 83 | 95 | 1.0 | 2.0 | 0.00 | 0.00 | 0.00 | 55 | 1013.1 |
| 20260504183156 | 82 | 82 | 4.0 | 4.0 | 0.00 | 0.00 | 0.00 | 56 | 1013.4 |
| 20260504182654 | 83 | 92 | 3.0 | 4.0 | 0.00 | 0.00 | 0.00 | 54 | 1013.7 |
| 20260504182152 | 82 | 149 | 0.0 | 4.0 | 0.00 | 0.00 | 0.00 | 57 | 1013.6 |
| 20260504181649 | 82 | 99 | 1.0 | 4.0 | 0.00 | 0.00 | 0.00 | 57 | 1013.8 |
| 20260504181147 | 81 | 133 | 2.0 | 5.0 | 0.00 | 0.00 | 0.00 | 57 | 1013.7 |
| 20260504180645 | 81 | 86 | 1.0 | 4.0 | 0.00 | 0.00 | 0.00 | 58 | 1013.8 |
| 20260504180143 | 79 | 110 | 2.0 | 3.0 | 0.00 | 0.00 | 0.00 | 62 | 1014.0 |
| 20260504175640 | 79 | 77 | 2.0 | 6.0 | 0.00 | 0.00 | 0.00 | 62 | 1013.7 |
| 20260504175137 | 78 | 98 | 2.0 | 3.0 | 0.00 | 0.00 | 0.00 | 62 | 1014.0 |
| 20260504174636 | 77 | 87 | 2.0 | 4.0 | 0.00 | 0.00 | 0.00 | 64 | 1014.0 |
| 20260504174131 | 77 | 93 | 2.0 | 5.0 | 0.00 | 0.00 | 0.00 | 64 | 1014.2 |
| 20260504173629 | 77 | 92 | 3.0 | 4.0 | 0.00 | 0.00 | 0.00 | 64 | 1014.3 |
| 20260504173126 | 76 | 80 | 1.0 | 4.0 | 0.00 | 0.00 | 0.00 | 65 | 1014.4 |
| 20260504172622 | 77 | 67 | 4.0 | 4.0 | 0.00 | 0.00 | 0.00 | 64 | 1014.6 |
| 20260504172119 | 77 | 83 | 2.0 | 4.0 | 0.00 | 0.00 | 0.00 | 64 | 1014.8 |
| 20260504171616 | 77 | 42 | 4.0 | 7.0 | 0.00 | 0.00 | 0.00 | 63 | 1014.8 |
| 20260504171113 | 75 | 70 | 2.0 | 7.0 | 0.00 | 0.00 | 0.00 | 67 | 1015.0 |
| 20260504170609 | 75 | 47 | 3.0 | 6.0 | 0.00 | 0.00 | 0.00 | 67 | 1014.8 |
| 20260504170107 | 75 | 74 | 0.0 | 5.0 | 0.00 | 0.00 | 0.00 | 67 | 1014.8 |
| 20260504150952 | 70 | 116 | 2.0 | 4.0 | 0.00 | 0.00 | 0.00 | 72 | 1015.6 |
| 20260504150449 | 70 | 54 | 2.0 | 5.0 | 0.00 | 0.00 | 0.00 | 73 | 1015.7 |
| 20260504140916 | 67 | 119 | 2.0 | 3.0 | 0.00 | 0.00 | 0.00 | 76 | 1015.5 |
| 20260504140412 | 66 | 112 | 1.0 | 4.0 | 0.00 | 0.00 | 0.00 | 77 | 1015.6 |
| 20260504130337 | 63 | 63 | 4.0 | 4.0 | 0.00 | 0.00 | 0.00 | 81 | 1015.6 |
| 20260504120300 | 60 | 89 | 2.0 | 3.0 | 0.00 | 0.00 | 0.00 | 85 | 1015.0 |
| 20260504110224 | 61 | 70 | 2.0 | 3.0 | 0.00 | 0.00 | 0.00 | 82 | 1015.5 |
| 20260504100148 | 62 | 76 | 2.0 | 4.0 | 0.00 | 0.00 | 0.00 | 80 | 1015.4 |
| 20260504090110 | 62 | 71 | 3.0 | 3.0 | 0.00 | 0.00 | 0.00 | 79 | 1015.6 |
| 20260504081541 | 63 | 60 | 2.0 | 3.0 | 0.00 | 0.00 | 0.00 | 76 | 1016.0 |
| 20260504081036 | 63 | 79 | 3.0 | 3.0 | 0.00 | 0.00 | 0.00 | 75 | 1016.1 |
| 20260504080533 | 63 | 87 | 2.0 | 3.0 | 0.00 | 0.00 | 0.00 | 76 | 1016.0 |